Location: Killam
(52.7910°N, 111.8608°W)
Time: 23:00:46
(UTC+00:00)

Vanguard 3 - Pass Details

Date: 20 February 2026
Orbit: 507 x 3205 km, 33.4° (Epoch: 11 March)

Event Time Altitude Azimuth Distance (km) Brightness Sun altitude
Rises 23:30:50 0° 231° (SW) 5,692 13.7 10.0°
Reaches altitude 10° 23:36:42 10° 215° (SW) 4,094 12.3 9.2°
Maximum altitude 23:42:37 17° 180° (S) 2,907 10.5 8.4°
Drops below altitude 10° 23:47:04 10° 142° (SE) 2,915 9.9 7.9°
Sets 23:50:14 0° 122° (ESE) 3,501 10.1 7.4°
